Garrison, ND

6:52 PM CST on January 17, 2018 (GMT -0600)
Garrison

Weather History for KN60 - May, 2014

Change the Weather History Date:

Saturday, May 17, 2014

  Actual Average Record
Temperature  
Mean Temperature 52 °F -  
Max Temperature 69 °F - 90 °F (2012)
Min Temperature 34 °F - 25 °F (2002)
Degree Days  
Heating Degree Days 14    
Cooling Degree Days 0    
Month to date cooling degree days 0  
Year to date cooling degree days 0  
Growing Degree Days 2 (Base 50)    
Moisture  
Dew Point 35 °F    
Average Humidity 55    
Maximum Humidity 82    
Minimum Humidity 27    
Precipitation  
Precipitation 0.00 in - 0.07 in (2013)
Month to date precipitation 1.25  
Year to date precipitation 5.08  
Sea Level Pressure  
Sea Level Pressure 29.99 in    
Wind  
Wind Speed 5 mph (SW)    
Max Wind Speed 14 mph    
Max Gust Speed 22 mph    
T = Trace of Precipitation, MM = Missing Value Source: NWS Daily Summary

Daily Weather History Graph

Daily Weather History Graph

Search for Another Location

Airport or City:

Trip Planner

Search our weather history database for the weather conditions in past years. The results will help you decide how hot, cold, wet, or windy it might be!

Date:

Astronomy

May. 17, 2014 Rise Set
Actual Time 6:05 AM CDT 9:19 PM CDT
Civil Twilight 5:28 AM CDT 9:56 PM CDT
Nautical Twilight 4:40 AM CDT 10:45 PM CDT
Astronomical Twilight 3:39 AM CDT 11:46 PM CDT
Moon No Moon Rise 8:51 AM CDT (5/17)
Length of Visible Light 16h 27m
Length of Day
15h 13m
Waning Gibbous, 89% of the Moon is Illuminated
May 17
Waning Gibbous
May 21
Last Quarter
May 28
New
Jun 5
First Quarter
Jun 12
Full

Hourly Weather History & Observations

Time (CDT) Temp. Windchill Dew Point Humidity Pressure Visibility Wind Dir Wind Speed Gust Speed Precip Events Conditions
12:52 AM 41.0 °F - 30.0 °F 65% 30.06 in - Calm Calm - N/A   Unknown
1:52 AM 39.9 °F 37.8 °F 30.0 °F 68% 30.05 in - North 3.5 mph - N/A   Unknown
2:52 AM 37.9 °F - 30.9 °F 76% 30.05 in - Calm Calm - N/A   Unknown
3:52 AM 36.0 °F - 28.9 °F 76% 30.04 in - Calm Calm - N/A   Unknown
4:52 AM 35.1 °F 32.2 °F 30.0 °F 82% 30.04 in - West 3.5 mph - N/A   Unknown
5:52 AM 37.9 °F - 32.0 °F 79% 30.04 in - Calm Calm - N/A   Unknown
6:52 AM 39.0 °F 36.8 °F 33.1 °F 79% 30.04 in - WNW 3.5 mph - N/A   Unknown
7:52 AM 46.9 °F - 37.9 °F 71% 30.03 in - Calm Calm - N/A   Unknown
8:52 AM 54.0 °F - 39.9 °F 59% 30.04 in - Calm Calm - N/A   Unknown
9:52 AM 59.0 °F - 39.9 °F 49% 30.02 in - Variable 3.5 mph - N/A   Unknown
10:52 AM 61.0 °F - 39.0 °F 44% 30.02 in - SSW 9.2 mph - N/A   Unknown
11:52 AM 62.1 °F - 37.0 °F 39% 30.02 in - SSW 9.2 mph - N/A   Unknown
12:52 PM 64.0 °F - 30.9 °F 29% 30.01 in - SSW 9.2 mph 16.1 mph N/A   Unknown
1:52 PM 66.0 °F - 35.1 °F 32% 29.99 in - WSW 12.7 mph 17.3 mph N/A   Unknown
2:52 PM 66.9 °F - 33.1 °F 28% 29.97 in - WSW 12.7 mph - N/A   Unknown
3:52 PM 66.0 °F - 34.0 °F 30% 29.96 in - Variable 5.8 mph - N/A   Unknown
4:52 PM 68.0 °F - 34.0 °F 28% 29.94 in - SSE 8.1 mph - N/A   Unknown
5:52 PM 68.0 °F - 36.0 °F 31% 29.93 in - SSW 11.5 mph - N/A   Unknown
6:52 PM 66.0 °F - 37.0 °F 34% 29.93 in - WSW 9.2 mph - N/A   Unknown
7:52 PM 64.9 °F - 36.0 °F 34% 29.92 in - SW 5.8 mph - N/A   Unknown
8:52 PM 62.1 °F - 37.9 °F 41% 29.91 in - Calm Calm - N/A   Unknown
9:52 PM 57.0 °F - 39.0 °F 51% 29.91 in - Calm Calm - N/A   Unknown
10:52 PM 53.1 °F - 37.9 °F 57% 29.91 in - Calm Calm - N/A   Unknown
11:52 PM 51.1 °F - 37.9 °F 61% 29.91 in - Calm Calm - N/A   Unknown